Track COSMOS 1473 now! 10-day predictions COSMOS 1473 is classified as:
1 14171U 83069A 22146.84930314 .00000008 00000-0 14328-3 0 9996 2 14171 74.0241 192.0044 0044054 355.8412 177.7496 12.58729373787256